Nashua, NH

1:09 PM EDT on October 15, 2019 (GMT -0400)
Boire

Weather History for KASH - August, 2019

Change the Weather History Date:

Thursday, August 22, 2019

  Actual Average Record
Temperature  
Mean Temperature 77 °F -  
Max Temperature 89 °F 79 °F 94 °F (1955)
Min Temperature 66 °F 53 °F 35 °F (1982)
Cooling Degree Days 12    
Growing Degree Days 27 (Base 50)    
Moisture  
Dew Point 66 °F    
Average Humidity 73    
Maximum Humidity 100    
Minimum Humidity 44    
Precipitation  
Precipitation 0.00 in - - ()
Sea Level Pressure  
Sea Level Pressure 29.85 in    
Wind  
Wind Speed 3 mph ()    
Max Wind Speed 13 mph    
Max Gust Speed 20 mph    
Visibility 9.9 miles    
Events      
Averages and records for this station are not official NWS values.
T = Trace of Precipitation, MM = Missing Value Source: Averaged Metar Reports

Daily Weather History Graph

Daily Weather History Graph

Search for Another Location

Airport or City:

Astronomy

Aug. 22, 2019 Rise Set
Actual Time 5:59 AM EDT 7:37 PM EDT
Civil Twilight 5:29 AM EDT 8:07 PM EDT
Nautical Twilight 4:53 AM EDT 8:43 PM EDT
Astronomical Twilight 4:14 AM EDT 9:22 PM EDT
Moon 11:16 PM EDT (8/22) 12:41 PM EDT (8/22)
Length of Visible Light 14h 37m
Length of Day
13h 37m
Waning Gibbous, 60% of the Moon is Illuminated
Aug 22
Waning Gibbous
Aug 23
Last Quarter
Aug 30
New
Sep 5
First Quarter
Sep 14
Full

Hourly Weather History & Observations

Time (EDT) Temp. Heat Index Dew Point Humidity Pressure Visibility Wind Dir Wind Speed Gust Speed Precip Events Conditions
12:56 AM 69.1 °F - 69.1 °F 100% 29.85 in 10.0 mi Calm Calm - N/A   Clear
1:56 AM 70.0 °F - 69.1 °F 97% 29.84 in 10.0 mi Variable 3.5 mph - N/A   Clear
2:56 AM 68.0 °F - 68.0 °F 100% 29.84 in 10.0 mi West 3.5 mph - N/A   Clear
3:56 AM 68.0 °F - 68.0 °F 100% 29.83 in 7.0 mi SSW 4.6 mph - N/A   Clear
4:56 AM 66.9 °F - 66.9 °F 100% 29.83 in 10.0 mi Calm Calm - N/A   Clear
5:56 AM 66.0 °F - 66.0 °F 100% 29.84 in 10.0 mi Calm Calm - N/A   Clear
6:56 AM 66.9 °F - 66.9 °F 100% 29.86 in 10.0 mi Calm Calm - N/A   Clear
7:56 AM 70.0 °F - 69.1 °F 97% 29.86 in 10.0 mi Calm Calm - N/A   Partly Cloudy
8:56 AM 75.0 °F - 71.1 °F 87% 29.86 in 10.0 mi Variable 4.6 mph - N/A   Clear
9:56 AM 78.1 °F - 73.0 °F 84% 29.86 in 10.0 mi Calm Calm - N/A   Partly Cloudy
10:56 AM 81.0 °F 86.2 °F 73.9 °F 79% 29.86 in 10.0 mi Variable 3.5 mph - N/A   Mostly Cloudy
11:56 AM 84.9 °F 92.1 °F 73.9 °F 69% 29.84 in 10.0 mi West 6.9 mph - N/A   Mostly Cloudy
12:56 PM 84.9 °F 91.4 °F 73.0 °F 67% 29.83 in 10.0 mi West 5.8 mph - N/A   Mostly Cloudy
1:56 PM 88.0 °F 90.7 °F 66.9 °F 49% 29.83 in 10.0 mi WNW 10.4 mph 16.1 mph N/A   Mostly Cloudy
2:56 PM 88.0 °F 90.7 °F 66.9 °F 49% 29.83 in 10.0 mi WNW 11.5 mph - N/A   Scattered Clouds
3:56 PM 88.0 °F 89.3 °F 64.0 °F 45% 29.82 in 10.0 mi West 12.7 mph 19.6 mph N/A   Scattered Clouds
4:56 PM 87.1 °F 87.8 °F 63.0 °F 44% 29.82 in 10.0 mi West 10.4 mph - N/A   Clear
5:56 PM 84.9 °F 85.9 °F 63.0 °F 48% 29.83 in 10.0 mi West 5.8 mph - N/A   Clear
6:56 PM 81.0 °F 82.5 °F 64.0 °F 56% 29.84 in 10.0 mi WSW 5.8 mph - N/A   Scattered Clouds
7:56 PM 79.0 °F - 61.0 °F 54% 29.85 in 10.0 mi West 3.5 mph - N/A   Overcast
8:56 PM 75.0 °F - 60.1 °F 60% 29.87 in 10.0 mi West 5.8 mph - N/A   Clear
9:56 PM 72.0 °F - 60.1 °F 66% 29.88 in 10.0 mi Calm Calm - N/A   Clear
10:56 PM 73.9 °F - 57.0 °F 55% 29.88 in 10.0 mi West 5.8 mph - N/A   Overcast
11:56 PM 73.0 °F - 57.0 °F 57% 29.90 in 10.0 mi WNW 4.6 mph - N/A   Overcast